Location: Fort Wayne
(41.1310°N, 85.1290°W)
Time: 22:40:32
(UTC-04:00)

Courier 1B Rocket - All Passes

Search period start: 24 August 2016 00:00
Search period end: 03 September 2016 00:00
Orbit: 920 x 1202 km, 28.2° (Epoch: 23 August)

Date Brightness Start Highest point End Pass type
(mag) Time Alt. Az. Time Alt. Az. Time Alt. Az.
24 Aug - 18:32:44 10° SSW 18:37:07 18° SSE 18:41:22 10° ESE daylight
24 Aug - 20:24:31 10° SW 20:29:39 25° S 20:34:39 10° SE daylight
24 Aug - 22:17:40 10° WSW 22:22:10 21° SSW 22:26:37 10° SSE visible
25 Aug - 17:32:40 10° SSW 17:36:24 15° SSE 17:40:01 10° SE daylight
25 Aug - 19:23:44 10° SW 19:28:56 24° S 19:33:55 10° ESE daylight
25 Aug - 21:16:33 10° WSW 21:21:29 23° S 21:26:19 10° SE visible
25 Aug - 23:11:05 10° SW 23:13:52 13° SSW 23:16:39 10° S visible
26 Aug - 16:33:18 10° S 16:35:39 12° SSE 16:37:58 10° SE daylight
26 Aug - 18:23:05 10° SW 18:28:11 23° S 18:33:04 10° ESE daylight
26 Aug - 20:15:32 10° WSW 20:20:47 25° S 20:25:51 10° SE daylight
26 Aug - 22:09:18 10° WSW 22:13:14 17° SSW 22:17:08 10° SSE visible
27 Aug - 17:22:34 10° SSW 17:27:25 20° SSE 17:32:03 10° ESE daylight
27 Aug - 19:14:35 10° SW 19:20:03 26° S 19:25:15 10° SE daylight
27 Aug - 21:07:54 10° WSW 21:12:35 21° SSW 21:17:07 10° SSE visible
28 Aug - 16:22:21 10° SSW 16:26:39 17° SSE 16:30:46 10° SE daylight
28 Aug - 18:13:42 10° SW 18:19:15 26° S 18:24:32 10° ESE daylight
28 Aug - 20:06:41 10° WSW 20:11:53 24° S 20:16:52 10° SE daylight
28 Aug - 22:01:23 10° SW 22:04:16 13° SSW 22:07:05 10° S visible
29 Aug - 15:22:41 10° S 15:25:51 13° SSE 15:28:56 10° SE daylight
29 Aug - 17:12:56 10° SW 17:18:27 24° S 17:23:42 10° ESE daylight
29 Aug - 19:05:33 10° WSW 19:11:08 26° S 19:16:26 10° SE daylight
29 Aug - 20:59:28 10° WSW 21:03:37 18° SSW 21:07:39 10° SSE visible
30 Aug - 16:12:20 10° SSW 16:17:38 21° SSE 16:22:40 10° ESE daylight
30 Aug - 18:04:30 10° SW 18:10:20 28° S 18:15:51 10° SE daylight
30 Aug - 19:57:58 10° WSW 20:02:56 22° SSW 20:07:42 10° SSE daylight
31 Aug - 15:12:02 10° SSW 15:16:47 18° SSE 15:21:23 10° ESE daylight
31 Aug - 17:03:32 10° SW 17:09:30 27° S 17:15:08 10° ESE daylight
31 Aug - 18:56:39 10° WSW 19:02:12 25° S 19:07:28 10° SE daylight
31 Aug - 20:51:27 10° SW 20:54:36 14° SSW 20:57:42 10° S visible
01 Sep - 14:12:12 10° S 14:15:57 14° SSE 14:19:37 10° SE daylight
01 Sep - 16:02:43 10° SW 16:08:37 25° S 16:14:15 10° ESE daylight
01 Sep - 17:55:26 10° WSW 18:01:23 28° S 18:07:01 10° SE daylight
01 Sep - 19:49:27 10° WSW 19:53:56 18° SSW 19:58:15 10° SSE daylight
02 Sep - 13:14:03 10° SSE 13:15:08 10° SSE 13:16:12 10° SE daylight
02 Sep - 15:02:04 10° SSW 15:07:44 23° SSE 15:13:11 10° ESE daylight
02 Sep - 16:54:20 10° WSW 17:00:32 29° S 17:06:24 10° ESE daylight
02 Sep - 18:47:53 10° WSW 18:53:13 23° SSW 18:58:17 10° SE daylight
